• în România
  • Lista ţărilor
  • Pe 7 zile
  • Temperatura apei
  • Hartă satelitară
  • Meteo pe hartă
  • Widget-uri
  • user-avatar
    Intrare

    Meteo pe oră la Osiek

    Astăzi, 15 Decembrie, Vineri

    Timp Temperatura Precipitaţii Vânt Presiune Umiditate
    00:00 +6°C° 0,2 mm 4 m/s 746 mmHg 80%
    01:00 +7°C° 0 mm 3 m/s 745 mmHg 87%
    02:00 +7°C° 0,1 mm 3 m/s 745 mmHg 85%
    03:00 +7°C° 0,1 mm 3 m/s 744 mmHg 84%
    04:00 +7°C° 0,1 mm 3 m/s 744 mmHg 82%
    05:00 +6°C° 0 mm 4 m/s 744 mmHg 81%
    06:00 +7°C° 0 mm 4 m/s 743 mmHg 80%
    07:00 +7°C° 0 mm 4 m/s 743 mmHg 78%
    08:00 +8°C° 0 mm 4 m/s 743 mmHg 75%
    09:00 +10°C° 0 mm 4 m/s 743 mmHg 71%
    10:00 +11°C° 0 mm 4 m/s 743 mmHg 67%
    11:00 +12°C° 0 mm 3 m/s 743 mmHg 64%
    12:00 +13°C° 0 mm 3 m/s 743 mmHg 61%
    13:00 +14°C° 0 mm 3 m/s 743 mmHg 58%
    14:00 +13°C° 0,1 mm 3 m/s 743 mmHg 63%
    15:00 +14°C° 0,1 mm 2 m/s 743 mmHg 69%
    16:00 +13°C° 0,1 mm 2 m/s 743 mmHg 74%
    17:00 +11°C° 2 mm 3 m/s 742 mmHg 79%
    18:00 +10°C° 2 mm 3 m/s 742 mmHg 85%
    19:00 +9°C° 2 mm 3 m/s 741 mmHg 91%
    20:00 +9°C° 2,4 mm 3 m/s 741 mmHg 92%
    21:00 +9°C° 2,4 mm 3 m/s 740 mmHg 94%
    22:00 +9°C° 2,4 mm 2 m/s 739 mmHg 95%
    23:00 +8°C° 1,8 mm 3 m/s 739 mmHg 92%

    Mâine, 16 Decembrie, Sâmbătă

    Timp Temperatura Precipitaţii Vânt Presiune Umiditate
    00:00 +7°C° 1,8 mm 4 m/s 739 mmHg 90%
    01:00 +6°C° 1,8 mm 5 m/s 739 mmHg 88%
    02:00 +5°C° 0,6 mm 5 m/s 739 mmHg 85%
    03:00 +5°C° 0,6 mm 5 m/s 740 mmHg 82%
    04:00 +3°C° 0,6 mm 5 m/s 740 mmHg 79%
    05:00 +3°C° 0,3 mm 5 m/s 741 mmHg 78%
    06:00 +4°C° 0,3 mm 4 m/s 742 mmHg 78%
    07:00 +4°C° 0,3 mm 4 m/s 743 mmHg 77%
    08:00 +4°C° 0 mm 4 m/s 744 mmHg 76%
    09:00 +4°C° 0 mm 4 m/s 744 mmHg 74%
    10:00 +5°C° 0 mm 4 m/s 745 mmHg 72%
    11:00 +5°C° 0 mm 4 m/s 746 mmHg 69%
    12:00 +7°C° 0 mm 3 m/s 746 mmHg 66%
    13:00 +7°C° 0 mm 3 m/s 746 mmHg 63%
    14:00 +7°C° 0 mm 3 m/s 747 mmHg 65%
    15:00 +6°C° 0 mm 2 m/s 747 mmHg 68%
    16:00 +6°C° 0 mm 2 m/s 748 mmHg 70%
    17:00 +5°C° 0 mm 2 m/s 748 mmHg 72%
    18:00 +5°C° 0 mm 2 m/s 749 mmHg 74%
    19:00 +4°C° 0 mm 2 m/s 749 mmHg 75%
    20:00 +4°C° 0 mm 2 m/s 750 mmHg 76%
    21:00 +4°C° 0 mm 2 m/s 750 mmHg 77%
    22:00 +3°C° 0 mm 2 m/s 751 mmHg 77%
    23:00 +2°C° 0 mm 3 m/s 751 mmHg 77%

    Poimâine, 17 Decembrie, Duminică

    Timp Temperatura Precipitaţii Vânt Presiune Umiditate
    00:00 +2°C° 0 mm 3 m/s 751 mmHg 77%
    01:00 +1°C° 0 mm 4 m/s 751 mmHg 77%
    02:00 +1°C° 0 mm 3 m/s 752 mmHg 76%
    03:00 +1°C° 0 mm 3 m/s 752 mmHg 76%
    04:00 +1°C° 0 mm 3 m/s 753 mmHg 76%
    05:00 +1°C° 0 mm 3 m/s 753 mmHg 76%
    06:00 +1°C° 0 mm 3 m/s 754 mmHg 77%
    07:00 +1°C° 0 mm 3 m/s 755 mmHg 77%
    08:00 0°C° 0 mm 4 m/s 755 mmHg 75%
    09:00 +1°C° 0 mm 5 m/s 756 mmHg 72%
    10:00 +1°C° 0 mm 5 m/s 757 mmHg 70%
    11:00 +2°C° 0 mm 5 m/s 757 mmHg 67%
    12:00 +2°C° 0 mm 5 m/s 757 mmHg 63%
    13:00 +3°C° 0 mm 5 m/s 757 mmHg 60%
    14:00 +3°C° 0 mm 4 m/s 757 mmHg 63%
    15:00 +3°C° 0 mm 4 m/s 758 mmHg 66%
    16:00 +2°C° 0 mm 3 m/s 758 mmHg 68%
    17:00 +2°C° 0 mm 3 m/s 759 mmHg 71%
    18:00 +1°C° 0 mm 3 m/s 759 mmHg 73%
    19:00 +1°C° 0 mm 3 m/s 760 mmHg 76%
    20:00 +1°C° 0 mm 3 m/s 760 mmHg 76%
    21:00 0°C° 0 mm 3 m/s 761 mmHg 77%
    22:00 0°C° 0 mm 3 m/s 761 mmHg 78%
    23:00 0°C° 0 mm 3 m/s 761 mmHg 78%

    18 Decembrie, Luni

    Timp Temperatura Precipitaţii Vânt Presiune Umiditate
    00:00 0°C° 0 mm 3 m/s 762 mmHg 79%
    01:00 -1°C° 0 mm 3 m/s 762 mmHg 80%
    02:00 -1°C° 0 mm 3 m/s 762 mmHg 80%
    03:00 -1°C° 0 mm 3 m/s 762 mmHg 81%
    04:00 -1°C° 0 mm 3 m/s 762 mmHg 82%
    05:00 -1°C° 0 mm 3 m/s 762 mmHg 81%
    06:00 -1°C° 0 mm 3 m/s 762 mmHg 81%
    07:00 -1°C° 0 mm 3 m/s 762 mmHg 81%
    08:00 0°C° 0 mm 3 m/s 762 mmHg 75%
    09:00 +1°C° 0 mm 3 m/s 762 mmHg 70%
    10:00 +2°C° 0 mm 3 m/s 762 mmHg 64%
    11:00 +3°C° 0 mm 3 m/s 762 mmHg 60%
    12:00 +3°C° 0 mm 3 m/s 761 mmHg 56%
    13:00 +5°C° 0 mm 2 m/s 760 mmHg 52%
    14:00 +4°C° 0 mm 2 m/s 760 mmHg 56%
    15:00 +3°C° 0 mm 2 m/s 760 mmHg 61%
    16:00 +3°C° 0 mm 2 m/s 760 mmHg 65%
    17:00 +2°C° 0 mm 2 m/s 760 mmHg 66%
    18:00 +2°C° 0 mm 2 m/s 761 mmHg 68%
    19:00 +2°C° 0 mm 2 m/s 761 mmHg 70%
    20:00 +2°C° 0 mm 2 m/s 761 mmHg 70%
    21:00 +1°C° 0 mm 2 m/s 762 mmHg 71%
    22:00 +1°C° 0 mm 2 m/s 762 mmHg 72%
    23:00 +1°C° 0 mm 2 m/s 762 mmHg 73%

    19 Decembrie, Marţi

    Timp Temperatura Precipitaţii Vânt Presiune Umiditate
    00:00 +1°C° 0 mm 2 m/s 762 mmHg 74%
    01:00 +1°C° 0 mm 2 m/s 762 mmHg 75%
    02:00 +1°C° 0 mm 2 m/s 763 mmHg 76%
    03:00 +1°C° 0 mm 2 m/s 763 mmHg 77%
    04:00 +1°C° 0 mm 2 m/s 763 mmHg 78%
    05:00 +1°C° 0 mm 2 m/s 763 mmHg 78%
    06:00 +1°C° 0 mm 2 m/s 764 mmHg 79%
    07:00 +1°C° 0 mm 2 m/s 764 mmHg 79%
    08:00 +2°C° 0,1 mm 2 m/s 765 mmHg 76%
    09:00 +3°C° 0,1 mm 2 m/s 765 mmHg 73%
    10:00 +3°C° 0,1 mm 3 m/s 765 mmHg 69%
    11:00 +3°C° 0 mm 3 m/s 765 mmHg 69%
    12:00 +4°C° 0 mm 3 m/s 766 mmHg 68%
    13:00 +4°C° 0 mm 3 m/s 766 mmHg 68%
    14:00 +4°C° 0 mm 3 m/s 766 mmHg 71%
    15:00 +3°C° 0 mm 3 m/s 766 mmHg 74%
    16:00 +4°C° 0 mm 2 m/s 766 mmHg 77%
    17:00 +4°C° 0 mm 2 m/s 767 mmHg 79%
    18:00 +3°C° 0 mm 2 m/s 767 mmHg 80%
    19:00 +2°C° 0 mm 3 m/s 768 mmHg 82%
    20:00 +3°C° 0 mm 2 m/s 768 mmHg 85%
    21:00 +2°C° 0 mm 2 m/s 768 mmHg 87%
    22:00 +1°C° 0 mm 2 m/s 768 mmHg 90%
    23:00 +1°C° 0 mm 2 m/s 768 mmHg 91%

    20 Decembrie, Miercuri

    Timp Temperatura Precipitaţii Vânt Presiune Umiditate
    00:00 -1°C° 0 mm 2 m/s 768 mmHg 91%
    01:00 +1°C° 0 mm 1 m/s 768 mmHg 92%
    02:00 +1°C° 0 mm 1 m/s 768 mmHg 92%
    03:00 +1°C° 0 mm 1 m/s 768 mmHg 91%
    04:00 -1°C° 0 mm 2 m/s 768 mmHg 91%
    05:00 -1°C° 0 mm 2 m/s 768 mmHg 90%
    06:00 -1°C° 0 mm 2 m/s 768 mmHg 89%
    07:00 -1°C° 0 mm 2 m/s 768 mmHg 88%
    08:00 +1°C° 0 mm 2 m/s 768 mmHg 85%
    09:00 +2°C° 0 mm 2 m/s 768 mmHg 81%
    10:00 +3°C° 0 mm 2 m/s 768 mmHg 78%
    11:00 +3°C° 0,2 mm 2 m/s 768 mmHg 80%
    12:00 +2°C° 0,2 mm 3 m/s 768 mmHg 81%
    13:00 +2°C° 0,2 mm 3 m/s 767 mmHg 82%
    14:00 +2°C° 0,1 mm 3 m/s 767 mmHg 84%
    15:00 +2°C° 0,1 mm 3 m/s 767 mmHg 85%
    16:00 +2°C° 0,1 mm 3 m/s 766 mmHg 87%
    17:00 +2°C° 0,1 mm 3 m/s 767 mmHg 87%
    18:00 +2°C° 0,1 mm 3 m/s 767 mmHg 88%
    19:00 +2°C° 0,1 mm 3 m/s 767 mmHg 88%
    20:00 +2°C° 0,2 mm 3 m/s 767 mmHg 88%
    21:00 +2°C° 0,2 mm 3 m/s 767 mmHg 88%
    22:00 +2°C° 0,2 mm 3 m/s 767 mmHg 88%
    23:00 +2°C° 0,2 mm 3 m/s 767 mmHg 88%
    Arată mai mult